Regional Weather Roundup
Issued by NWS Portland, ME

Current Version | Previous Version | Text Only | Print | Product List | Glossary Off
Versions: 1 2 3 4 5 6 7 8 9 10 11 12 13 14 15 16 17 18 19 20 21 22 23 24 25 26 27 28 29 30 31 32 33 34 35 36 37 38 39 40 41 42 43 44 45 46 47 48 49 50
151 ASUS41 KGYX 230005 RWRGYX WEATHER ROUNDUP FOR MAINE AND NEW HAMPSHIRE NATIONAL WEATHER SERVICE GRAY ME 800 PM EDT THU JUN 22 2017 MEZ002-005-006-010-012-015-018-020-021-024-026-027-029-230100- MAINE CITY SKY/WX TMP DP RH WIND PRES REMARKS PORTLAND CLOUDY 69 54 58 S7 29.87R 6HR MIN TEMP: 69; 6HR MAX TEMP: 82; SANFORD CLOUDY 70 59 68 CALM 29.89R BAR HARBOR CLOUDY 65 54 67 SW8 29.86R WISCASSET MOCLDY 70 54 56 VRB3 29.89R 6HR MIN TEMP: 69; 6HR MAX TEMP: 80; ROCKLAND PTCLDY 66 54 65 SW12G20 29.87R FRYEBURG CLOUDY 73 53 49 SW5 29.88R 6HR MIN TEMP: 73; 6HR MAX TEMP: 82; LEWISTONAUBURN CLOUDY 71 61 70 CALM 29.86S AUGUSTA CLOUDY 74 49 41 NW3 29.87R 6HR MIN TEMP: 74; 6HR MAX TEMP: 80; WATERVILLE CLOUDY 71 55 56 W3 29.84R BANGOR MOCLDY 71 51 49 W3 29.85R 6HR MIN TEMP: 71; 6HR MAX TEMP: 79; GREENVILLE N/A 66 49 54 VRB3 29.86R 6HR MIN TEMP: 66; 6HR MAX TEMP: 71; MILLINOCKET PTCLDY 70 47 43 W5 29.84R 6HR MIN TEMP: 70; 6HR MAX TEMP: 76; 6HR PCP: TRACE; HOULTON CLEAR 67 43 41 W6 29.79R 6HR MIN TEMP: 67; 6HR MAX TEMP: 77; PRESQUE ISLE CLEAR 68 48 48 W6 29.80R 6HR MIN TEMP: 68; 6HR MAX TEMP: 74; FRENCHVILLE MOCLDY 65 46 50 N5 29.78R 6HR MIN TEMP: 65; 6HR MAX TEMP: 69; CARIBOU CLEAR 68 47 46 W5 29.77R 6HR MIN TEMP: 68; 6HR MAX TEMP: 75; $$ NHZ002-005-008-009-011-012-014-230100- NEW HAMPSHIRE CITY SKY/WX TMP DP RH WIND PRES REMARKS PORTSMOUTH MOCLDY 70 58 66 CALM 29.87R ROCHESTER CLOUDY 73 54 51 VRB3 29.88R 6HR MIN TEMP: 73; 6HR MAX TEMP: 82; NASHUA CLOUDY 76 59 55 CALM 29.89R MANCHESTER CLOUDY 79 51 37 NW6 29.87S 6HR MIN TEMP: 79; 6HR MAX TEMP: 83; CONCORD CLOUDY 76 54 46 W6 29.89R 6HR MIN TEMP: 76; 6HR MAX TEMP: 82; LACONIA CLOUDY N/A N/A N/A CALM 29.90R PLYMOUTH CLOUDY 73 57 57 CALM 29.89R BERLIN CLOUDY 69 53 56 CALM 29.89R 6HR MIN TEMP: 69; 6HR MAX TEMP: 77; WHITEFIELD CLOUDY 70 53 54 W3 29.89R 6HR MIN TEMP: 70; 6HR MAX TEMP: 77; JAFFREY CLOUDY 74 59 59 CALM 29.92R 6HR MIN TEMP: 74; 6HR MAX TEMP: 80; KEENE CLOUDY 71 63 75 CALM 29.90S LEBANON MOCLDY 71 59 65 CALM 29.89R 6HR MIN TEMP: 71; 6HR MAX TEMP: 81; MT WASHINGTON CLOUDY 46 45 93 W29 N/A 6HR MIN TEMP: 44; 6HR MAX TEMP: 48; $$ VTZ005-007-008-230100- VERMONT CITY SKY/WX TMP DP RH WIND PRES REMARKS ST JOHNSBURY N/A 71 59 65 MISG 29.86S MONTPELIER CLOUDY 71 54 54 SW3 29.93S BURLINGTON CLOUDY 77 52 41 CALM 29.85F $$ MAZ007-012-024-CTZ003-RIZ002-NYZ038-NYZ072-230100- SOUTHERN NEW ENGLAND AND NY CITY SKY/WX TMP DP RH WIND PRES REMARKS BOSTON MOCLDY 81 52 36 W9 29.88R WORCESTER CLOUDY 73 54 51 SW5 29.93R NANTUCKET CLOUDY 64 58 80 SW8 29.94R PROVIDENCE MOCLDY 74 59 59 SW10 29.92R HARTFORD CLOUDY 78 60 53 S10 29.90R ALBANY CLOUDY 78 59 51 CALM 29.88F NEW YORK CITY MOCLDY 78 67 68 S9 29.90S $$ ANZ081-ANZ082-ANZ150-NHZ014-MEZ023>029-230100- COASTAL MARINE OBSERVATIONS STATION/POSITION TIME TEMP WIND PRES WAVE AIR SEA DIR/SP/G HT/PER (UTC) (F) (DEG/KT/KT) (MB) (FT/S) MATINICUS ROCK 2300 60 210/ 21/ 21 1010.3F ISLE OF SHOALS 2300 65 160/ 16/ 17 1011.2R JEFFREYS LEDGE 2336 61 N/A 2/ 6 CASHES LEDGE BUO 2350 63 60 1011.4S 3/ 6 GEORGES BANK BUO 2250 57 56 1013.8 3/ 6 $$ .............KEY.............. WCI - WIND CHILL TC - TEMPERATURE IN CELSIUS VSB - VISIBILITY IN MILES HX - HEAT INDEX FAIR- INDICATES FEW OR NO CLOUDS BELOW 12,000 FT, WITH NO SIGNIFICANT WEATHER AND/OR OBSTRUCTIONS TO VISIBILITY.

USA.gov is the U.S. government's official web portal to all federal, state and local government web resources and services.